ONEWEB-0010 (44058 NORAD) Tracking and Keplerian Element Data

This shows tracking and keplerian element data for the satellite.

Feedback or suggestion? Click here.




ElementValue
Catalog44058
NameONEWEB-0010
Epoch Orbit389
Epoch Day87.45371472
Epoch Year2019
RAAN64.1573
Inclination87.7739
Eccentricity0.0017374
Argument of Perigee161.7654
Mean Anonmoly198.4133
Mean Motion13.69599648
Decay Rate2.8E-07
L11 44058U 19010B 19087.45371472 .00000028 00000-0 15043-4 0 9997
L22 44058 87.7739 64.1573 0017374 161.7654 198.4133 13.69599648 3891

Live tracking and technical data element details for ONEWEB-0010 (NORAD 44058). ONEWEB-0010 can be tracked NOW for your location showing map with azimuth and elevation plus other details from your city location.

Track the satellite on the map from your city or location and see movement details for azimuth, elevation, latitude, longitude, range, height, and movement on the map or in text.







IsCatalogInMostPopularTable: catalog: 44058, numindb: 107
Update: records affected: 1



GetName: 44058 ONEWEB-0010

Hit Count: updated at: Mon, 22 Jul 2019 16:01:10 GMT